SL-14 DEB, 45356

Orbit data source: Space-Track

SL-14 DEB, 45356 is space debris in LEO originally from a launch on Thu, 15 Aug 1991 UTC launched from the Plesetsk Missile And Space Complex (PKMTR). Debris objects in space refer to the collection of defunct objects orbiting the Earth. Examples of debris include non-operational satellites, rocket bodies, and fragments generated from explosions, collisions, or faulty payload assembly.

Loading next visibility...
Identifier
45356, 1991-056CQ
Orbit
LEO
Country
Flag of CISCIS
Related business
Manufacturer
Unknown
Mission
Spacecraft
Bus & Motor
Unknown
Mass
Unknown
Launch date (UTC)
1991-08-15 (35 years ago)
Launch vehicle
Unknown
Launch site
Plesetsk Missile And Space Complex (PKMTR)
Object type
Payload
Rocket body
Debris
Shape & HBR
Unknown shape, 0.1 m
Radar Cross Section
Medium (>0.1 m² and <1 m²)

Expand to show TLE details & history
Last TLE update: 1 week ago

TLE from 1 week ago
0 SL-14 DEB
1 45356U 91056CQ  26153.70147515  .00000453  00000-0  98185-3 0  9997
2 45356  82.6119 137.5573 0043461   8.3307 351.8533 13.26947768302514
Epoch: 2026-06-02T16:50Z
TLE epoch observation values (Epoch: 2026-06-02T16:50:07.452Z)
Latitude
-0.00004°
Longitude
-6.14442°
Altitude
1,128.694 km
Speed
7.304 km/s
True Right ascension
09h 10m 13s
True Declination
0° 00' 00"
Sunlit
Object was in daylight at epoch
Visualization orbit readout
Latitude
Unknown
Longitude
Unknown
Altitude
Unknown
Speed
Unknown
Apparent Right ascension
Unknown
Apparent Declination
Unknown
Sunlit
N/A
Visualization observer readout
Local Sidereal Time
19:30:41
Azimuth
Unknown
Elevation
Unknown
Doppler factor
Unknown
Orbital elements
Apogee altitude
1,188.268 km
Perigee altitude
1,122.784 km
Semi-major axis
7,533.663 km
Eccentricity
0.00435
Inclination
82.6119°
RAAN
137.5573°
Arg. of periapsis
8.3307°
True anomaly
351.78234°
Mean anomaly
351.8533°
Eccentric anomaly
351.81786°
Mean motion
3.3192 °/min
Orbital period
108.46 mins
BSTAR
0.00098185
Loading maneuver chart data...
Computing Atmospheric mass density...
Loading historical data...
Loading historical data...
Loading historical data...
Loading historical data...
Loading historical data...
Loading historical data...
Loading historical data...

Documentation

Showing up to 5 results
|